AIC241 VECC-VQPR

Flight info

Callsign AIC241
Flight time N/A
Altitude 35000
Route AGODA2C AGODA R472 RAJ R598 BOGOP BOGOP1A
Aircraft A20N/M-SDE2E3FGHIRWXY/LB1

Departure

Time 2026-04-29 10:56
Airport Netaji Subhash Chandra Bose International Airport (VECC)

Arrival

Time N/A
Airport Paro International Airport (VQPR)
Time Latitude Longitude Altitude Speed Heading
2026-04-29 10:38 22.64298 88.44060 56 ft 0 kts 275°
2026-04-29 10:39 22.64297 88.44076 28 ft 2 kts 275°
2026-04-29 10:39 22.64295 88.44093 28 ft 2 kts 275°
2026-04-29 10:40 22.64294 88.44111 28 ft 2 kts 277°
2026-04-29 10:40 22.64291 88.44129 28 ft 2 kts 285°
2026-04-29 10:40 22.64286 88.44146 28 ft 2 kts 306°
2026-04-29 10:40 22.64273 88.44155 28 ft 2 kts
2026-04-29 10:41 22.64257 88.44153 28 ft 2 kts
2026-04-29 10:41 22.64254 88.44152 28 ft 0 kts
2026-04-29 10:46 22.64258 88.44153 28 ft 2 kts
2026-04-29 10:46 22.64284 88.44156 28 ft 6 kts
2026-04-29 10:46 22.64335 88.44162 28 ft 9 kts
2026-04-29 10:47 22.64407 88.44172 28 ft 12 kts
2026-04-29 10:47 22.64500 88.44184 28 ft 15 kts
2026-04-29 10:47 22.64610 88.44197 28 ft 17 kts
2026-04-29 10:47 22.64736 88.44215 28 ft 19 kts
2026-04-29 10:48 22.64876 88.44233 28 ft 21 kts
2026-04-29 10:48 22.64997 88.44249 28 ft 16 kts
2026-04-29 10:48 22.65061 88.44276 28 ft 9 kts 58°
2026-04-29 10:48 22.65091 88.44345 28 ft 11 kts 64°
2026-04-29 10:49 22.65133 88.44417 28 ft 11 kts 31°
2026-04-29 10:49 22.65218 88.44432 28 ft 14 kts
2026-04-29 10:49 22.65323 88.44445 28 ft 16 kts
2026-04-29 10:49 22.65414 88.44456 28 ft 18 kts
2026-04-29 10:50 22.65544 88.44471 29 ft 20 kts
2026-04-29 10:50 22.65688 88.44488 28 ft 22 kts
2026-04-29 10:50 22.65828 88.44505 29 ft 13 kts
2026-04-29 10:50 22.65852 88.44511 29 ft 14 kts 20°
2026-04-29 10:51 22.65890 88.44534 29 ft 14 kts 31°
2026-04-29 10:51 22.65980 88.44594 29 ft 16 kts 32°
2026-04-29 10:51 22.66085 88.44662 28 ft 18 kts 31°
2026-04-29 10:51 22.66097 88.44670 28 ft 0 kts 32°
2026-04-29 10:52 22.66111 88.44681 28 ft 4 kts 38°
2026-04-29 10:52 22.66136 88.44711 28 ft 6 kts 59°
2026-04-29 10:52 22.66138 88.44763 28 ft 8 kts 96°
2026-04-29 10:53 22.66131 88.44829 28 ft 10 kts 95°
2026-04-29 10:53 22.66158 88.44862 28 ft 10 kts 18°
2026-04-29 10:53 22.66274 88.44877 27 ft 15 kts
2026-04-29 10:53 22.66388 88.44890 29 ft 18 kts
2026-04-29 10:54 22.66520 88.44906 27 ft 20 kts
2026-04-29 10:54 22.66666 88.44923 29 ft 22 kts
2026-04-29 10:54 22.66823 88.44943 27 ft 23 kts
2026-04-29 10:54 22.66984 88.44960 28 ft 23 kts
2026-04-29 10:55 22.67078 88.44950 29 ft 10 kts 83°
2026-04-29 10:55 22.67021 88.44963 28 ft 10 kts 185°
2026-04-29 10:55 22.67015 88.44963 28 ft 0 kts 185°
2026-04-29 10:55 22.67006 88.44962 28 ft 8 kts 185°
2026-04-29 10:56 22.66862 88.44946 28 ft 55 kts 186°
2026-04-29 10:56 22.65976 88.44844 29 ft 132 kts 186°
2026-04-29 10:56 22.64936 88.44727 220 ft 154 kts 181°
2026-04-29 10:56 22.63862 88.44531 667 ft 164 kts 194°
2026-04-29 10:57 22.62958 88.43781 1348 ft 165 kts 231°
2026-04-29 10:57 22.62649 88.43033 1787 ft 167 kts 246°
2026-04-29 10:57 22.62290 88.41765 2082 ft 188 kts 246°
2026-04-29 10:57 22.61887 88.40355 2388 ft 204 kts 247°
2026-04-29 10:58 22.61445 88.38823 2657 ft 221 kts 248°
2026-04-29 10:58 22.60973 88.37179 2869 ft 233 kts 248°
2026-04-29 10:58 22.60474 88.35433 2900 ft 257 kts 248°
2026-04-29 10:58 22.59925 88.33524 2913 ft 268 kts 248°
2026-04-29 10:59 22.59200 88.30987 2932 ft 268 kts 249°
2026-04-29 10:59 22.58870 88.29661 3140 ft 272 kts 258°
2026-04-29 10:59 22.59019 88.27615 3978 ft 279 kts 285°
2026-04-29 10:59 22.59999 88.25836 4959 ft 284 kts 312°
2026-04-29 11:00 22.61647 88.24673 6009 ft 285 kts 339°
2026-04-29 11:00 22.63583 88.24231 7039 ft 285 kts 350°
2026-04-29 11:00 22.65549 88.23988 7982 ft 285 kts 351°
2026-04-29 11:00 22.67516 88.23767 8944 ft 284 kts 351°
2026-04-29 11:01 22.69481 88.23519 9840 ft 285 kts 351°
2026-04-29 11:01 22.71503 88.23233 10305 ft 304 kts 350°
2026-04-29 11:01 22.73673 88.22902 10560 ft 327 kts 349°
2026-04-29 11:01 22.75992 88.22642 11031 ft 340 kts 356°
2026-04-29 11:02 22.78371 88.22707 11818 ft 344 kts
2026-04-29 11:02 22.80778 88.22820 12595 ft 348 kts
2026-04-29 11:02 22.83177 88.22924 13335 ft 352 kts
2026-04-29 11:02 22.85634 88.23027 14029 ft 356 kts
2026-04-29 11:03 22.88122 88.23133 14697 ft 360 kts 360°
2026-04-29 11:03 22.90634 88.23241 15362 ft 363 kts
2026-04-29 11:03 22.93178 88.23352 16006 ft 368 kts
2026-04-29 11:03 22.95749 88.23464 16639 ft 372 kts 360°
2026-04-29 11:04 22.98351 88.23579 17266 ft 377 kts
2026-04-29 11:04 23.00982 88.23695 17900 ft 380 kts 360°
2026-04-29 11:04 23.03642 88.23811 18442 ft 385 kts 360°
2026-04-29 11:04 23.06338 88.23930 18950 ft 390 kts 360°
2026-04-29 11:05 23.09062 88.24051 19464 ft 394 kts 359°
2026-04-29 11:05 23.11781 88.24171 19961 ft 398 kts 359°
2026-04-29 11:05 23.14567 88.24295 20465 ft 403 kts 359°
2026-04-29 11:05 23.17379 88.24419 20703 ft 406 kts 359°
2026-04-29 11:06 23.20217 88.24591 20973 ft 411 kts
2026-04-29 11:06 23.23065 88.24970 21549 ft 414 kts
2026-04-29 11:06 23.25941 88.25344 22039 ft 418 kts
2026-04-29 11:06 23.27853 88.25589 22369 ft 421 kts
2026-04-29 11:07 23.29829 88.25841 22704 ft 423 kts
2026-04-29 11:07 23.32774 88.26218 23200 ft 427 kts
2026-04-29 11:07 23.35697 88.26594 23642 ft 430 kts
2026-04-29 11:07 23.38673 88.26978 24096 ft 432 kts
2026-04-29 11:08 23.41660 88.27365 24531 ft 434 kts
2026-04-29 11:08 23.44669 88.27754 24944 ft 437 kts
2026-04-29 11:08 23.47696 88.28146 25352 ft 440 kts
2026-04-29 11:08 23.50746 88.28542 25757 ft 442 kts
2026-04-29 11:09 23.53809 88.28939 26143 ft 445 kts
2026-04-29 11:09 23.56897 88.29339 26528 ft 448 kts
2026-04-29 11:09 23.60005 88.29742 26883 ft 451 kts
2026-04-29 11:09 23.63137 88.30149 27228 ft 454 kts
2026-04-29 11:10 23.66284 88.30558 27572 ft 458 kts
2026-04-29 11:10 23.69415 88.30965 27898 ft 461 kts
2026-04-29 11:10 23.72608 88.31379 28230 ft 464 kts
2026-04-29 11:10 23.75823 88.31797 28540 ft 467 kts
2026-04-29 11:11 23.79055 88.32218 28848 ft 470 kts
2026-04-29 11:11 23.82313 88.32642 29153 ft 472 kts
2026-04-29 11:11 23.85584 88.33068 29450 ft 475 kts
2026-04-29 11:11 23.88880 88.33498 29758 ft 478 kts
2026-04-29 11:12 23.92194 88.33930 30031 ft 481 kts
2026-04-29 11:12 23.95518 88.34467 30296 ft 487 kts
2026-04-29 11:12 23.98790 88.35545 30557 ft 496 kts 18°
2026-04-29 11:12 24.01914 88.37209 30823 ft 504 kts 27°
2026-04-29 11:13 24.04790 88.39323 31149 ft 507 kts 32°
2026-04-29 11:13 24.07684 88.41527 31496 ft 507 kts 32°
2026-04-29 11:13 24.10583 88.43725 31841 ft 507 kts 32°
2026-04-29 11:13 24.13485 88.45924 32190 ft 507 kts 32°
2026-04-29 11:14 24.16382 88.48121 32526 ft 507 kts 32°
2026-04-29 11:14 24.19285 88.50324 32838 ft 508 kts 32°
2026-04-29 11:14 24.22186 88.52528 33171 ft 508 kts 32°
2026-04-29 11:14 24.25091 88.54735 33480 ft 508 kts 32°
2026-04-29 11:15 24.27958 88.56909 33760 ft 508 kts 31°
2026-04-29 11:15 24.31033 88.58785 34010 ft 504 kts 20°
2026-04-29 11:15 24.34308 88.60087 34258 ft 498 kts 11°
2026-04-29 11:15 24.37683 88.60803 34519 ft 492 kts
2026-04-29 11:16 24.41083 88.61187 34707 ft 491 kts
2026-04-29 11:16 24.47846 88.62384 34758 ft 493 kts
2026-04-29 11:17 24.54525 88.63869 34759 ft 493 kts
2026-04-29 11:17 24.61251 88.65355 34762 ft 493 kts
2026-04-29 11:18 24.67979 88.66844 34763 ft 493 kts
2026-04-29 11:18 24.74701 88.68335 34764 ft 493 kts
2026-04-29 11:19 24.81423 88.69827 34760 ft 493 kts
2026-04-29 11:19 24.88139 88.71320 34762 ft 492 kts
2026-04-29 11:20 24.94809 88.72804 34757 ft 492 kts
2026-04-29 11:20 25.01514 88.74298 34762 ft 492 kts
2026-04-29 11:21 25.08225 88.75795 34765 ft 492 kts
2026-04-29 11:21 25.14927 88.77292 34766 ft 492 kts
2026-04-29 11:22 25.21592 88.78781 34766 ft 492 kts
2026-04-29 11:22 25.28299 88.80272 34769 ft 492 kts
2026-04-29 11:23 25.35002 88.81760 34772 ft 492 kts
2026-04-29 11:23 25.41715 88.83249 34777 ft 492 kts
2026-04-29 11:24 25.48428 88.84730 34777 ft 492 kts
2026-04-29 11:24 25.55151 88.86217 34784 ft 493 kts
2026-04-29 11:25 25.61824 88.87695 34786 ft 493 kts
2026-04-29 11:25 25.68552 88.89187 34793 ft 493 kts
2026-04-29 11:26 25.78202 88.93148 34789 ft 501 kts 33°
2026-04-29 11:26 25.83459 88.98163 34786 ft 503 kts 42°
2026-04-29 11:27 25.88590 89.03447 34791 ft 504 kts 42°
2026-04-29 11:27 25.93732 89.08744 34799 ft 504 kts 43°
2026-04-29 11:28 25.98871 89.14052 34804 ft 505 kts 43°
2026-04-29 11:28 26.04043 89.19337 34811 ft 505 kts 41°
2026-04-29 11:29 26.09299 89.24535 34698 ft 505 kts 41°
2026-04-29 11:29 26.11912 89.27070 34487 ft 505 kts 40°
2026-04-29 11:29 26.14587 89.29597 34255 ft 505 kts 40°
2026-04-29 11:30 26.17271 89.32121 34024 ft 506 kts 40°
2026-04-29 11:30 26.19953 89.34653 33745 ft 507 kts 40°
2026-04-29 11:30 26.22646 89.37207 33105 ft 509 kts 40°
2026-04-29 11:30 26.25344 89.39776 32262 ft 512 kts 40°
2026-04-29 11:31 26.28065 89.42370 31301 ft 517 kts 40°
2026-04-29 11:31 26.30798 89.44979 30548 ft 517 kts 40°
2026-04-29 11:31 26.33576 89.47465 29993 ft 510 kts 34°
2026-04-29 11:31 26.36559 89.49572 29350 ft 504 kts 29°
2026-04-29 11:32 26.39503 89.51559 28758 ft 498 kts 30°
2026-04-29 11:32 26.42444 89.53561 28167 ft 492 kts 30°
2026-04-29 11:32 26.45349 89.55544 27586 ft 487 kts 30°
2026-04-29 11:32 26.48220 89.57505 27004 ft 481 kts 29°
2026-04-29 11:33 26.51060 89.59444 26504 ft 475 kts 29°
2026-04-29 11:33 26.53840 89.61344 26228 ft 462 kts 29°
2026-04-29 11:33 26.56560 89.63202 26001 ft 456 kts 29°
2026-04-29 11:33 26.57223 89.63655 25945 ft 457 kts 29°
2026-04-29 11:36 26.58124 89.64270 25875 ft 462 kts 29°
2026-04-29 11:36 26.60875 89.66147 25651 ft 463 kts 29°
2026-04-29 11:37 26.63602 89.68011 25431 ft 456 kts 29°
2026-04-29 11:37 26.64553 89.68663 25346 ft 454 kts 29°
2026-04-29 11:37 26.64879 89.68885 25317 ft 455 kts 29°
2026-04-29 11:38 26.67577 89.70732 25095 ft 454 kts 29°
2026-04-29 11:38 26.70371 89.72310 24898 ft 447 kts 17°
2026-04-29 11:38 26.73365 89.73103 24866 ft 441 kts
2026-04-29 11:38 26.76358 89.73082 24802 ft 432 kts 348°
2026-04-29 11:39 26.79247 89.72282 24467 ft 424 kts 335°
2026-04-29 11:39 26.81869 89.70850 23998 ft 418 kts 329°
2026-04-29 11:39 26.84425 89.69321 23504 ft 415 kts 329°
2026-04-29 11:39 26.85861 89.68463 23177 ft 413 kts 329°
2026-04-29 11:40 26.88047 89.66889 22614 ft 406 kts 317°
2026-04-29 11:40 26.89967 89.64622 22052 ft 398 kts 307°
2026-04-29 11:40 26.91736 89.62251 21507 ft 395 kts 307°
2026-04-29 11:40 26.93497 89.59888 20808 ft 395 kts 307°
2026-04-29 11:41 26.95271 89.57571 20034 ft 399 kts 311°
2026-04-29 11:41 26.97412 89.55572 19241 ft 405 kts 326°
2026-04-29 11:41 26.99989 89.54268 18477 ft 411 kts 341°
2026-04-29 11:41 27.02818 89.53711 17627 ft 415 kts 351°
2026-04-29 11:42 27.05693 89.53363 16761 ft 416 kts 352°
2026-04-29 11:42 27.07042 89.53200 16461 ft 414 kts 352°
2026-04-29 11:43 27.09651 89.52887 16184 ft 402 kts 352°
2026-04-29 11:43 27.12356 89.52471 16070 ft 382 kts 343°
2026-04-29 11:43 27.14806 89.51562 16072 ft 361 kts 339°
2026-04-29 11:44 27.17117 89.50666 16085 ft 343 kts 339°
2026-04-29 11:44 27.19224 89.49601 16102 ft 321 kts 323°
2026-04-29 11:44 27.20706 89.47908 16109 ft 291 kts 298°
2026-04-29 11:44 27.21539 89.45933 16036 ft 271 kts 292°
2026-04-29 11:45 27.22289 89.44035 15862 ft 262 kts 292°
2026-04-29 11:45 27.23015 89.42194 15550 ft 261 kts 292°
2026-04-29 11:45 27.23750 89.40328 15222 ft 260 kts 292°
2026-04-29 11:45 27.24471 89.38502 15141 ft 254 kts 292°
2026-04-29 11:46 27.25198 89.36660 15142 ft 261 kts 292°
2026-04-29 11:46 27.25935 89.34791 15138 ft 261 kts 292°
2026-04-29 11:46 27.26672 89.32924 15136 ft 261 kts 292°
2026-04-29 11:46 27.26808 89.32580 15139 ft 261 kts 292°
2026-04-29 11:47 27.26971 89.32169 15134 ft 260 kts 292°
2026-04-29 11:47 27.27698 89.30327 15141 ft 258 kts 292°
2026-04-29 11:47 27.28431 89.28469 15138 ft 262 kts 292°
2026-04-29 11:48 27.29346 89.26707 15136 ft 262 kts 312°
2026-04-29 11:48 27.30856 89.25574 15141 ft 267 kts 336°
2026-04-29 11:48 27.32682 89.25105 15143 ft 274 kts 353°
2026-04-29 11:48 27.34539 89.24959 15143 ft 258 kts 354°
2026-04-29 11:49 27.36251 89.24824 15140 ft 241 kts 354°
2026-04-29 11:49 27.37927 89.24691 15144 ft 245 kts 354°
2026-04-29 11:49 27.39645 89.24555 15147 ft 248 kts 354°
2026-04-29 11:49 27.41356 89.24421 15152 ft 248 kts 354°
2026-04-29 11:50 27.43075 89.24286 15151 ft 247 kts 354°
2026-04-29 11:50 27.44789 89.24212 15136 ft 247 kts
2026-04-29 11:50 27.46489 89.24535 15153 ft 251 kts 11°
2026-04-29 11:50 27.48205 89.25008 15148 ft 255 kts 14°
2026-04-29 11:51 27.49813 89.25804 15144 ft 252 kts 28°
2026-04-29 11:51 27.51315 89.26740 15165 ft 237 kts 28°
2026-04-29 11:51 27.52679 89.27597 15136 ft 217 kts 31°
2026-04-29 11:51 27.53625 89.28736 15144 ft 187 kts 71°
2026-04-29 11:52 27.53710 89.30102 15120 ft 172 kts 113°
2026-04-29 11:52 27.53018 89.31131 14774 ft 168 kts 156°
2026-04-29 11:52 27.51893 89.31539 14340 ft 174 kts 165°
2026-04-29 11:52 27.50736 89.32016 13921 ft 180 kts 160°
2026-04-29 11:53 27.49612 89.32574 13729 ft 168 kts 153°
2026-04-29 11:53 27.48685 89.33285 13436 ft 158 kts 146°
2026-04-29 11:53 27.47801 89.34030 12985 ft 160 kts 145°
2026-04-29 11:53 27.46926 89.34770 12596 ft 159 kts 145°
2026-04-29 11:54 27.46033 89.35524 12131 ft 165 kts 145°
2026-04-29 11:54 27.45099 89.36370 11268 ft 182 kts 133°
2026-04-29 11:54 27.44602 89.37738 10317 ft 196 kts 100°
2026-04-29 11:54 27.44368 89.39240 9611 ft 193 kts 104°
2026-04-29 11:55 27.44058 89.40267 9091 ft 191 kts 115°
2026-04-29 11:55 27.43999 89.40404 9018 ft 191 kts 117°
2026-04-29 11:55 27.43205 89.41565 8391 ft 185 kts 142°
2026-04-29 11:55 27.42109 89.42070 8055 ft 166 kts 173°
2026-04-29 11:56 27.40984 89.42201 7846 ft 160 kts 165°
2026-04-29 11:56 27.39969 89.42853 8346 ft 173 kts 144°
2026-04-29 11:56 27.38981 89.43582 9081 ft 166 kts 149°
2026-04-29 11:56 27.37974 89.44282 9571 ft 175 kts 149°
2026-04-29 11:57 27.36845 89.44962 9855 ft 198 kts 158°
2026-04-29 11:57 27.35460 89.45619 9689 ft 228 kts 157°
2026-04-29 11:57 27.33993 89.46337 9695 ft 233 kts 157°
2026-04-29 11:57 27.32654 89.47380 9986 ft 242 kts 130°
2026-04-29 11:58 27.32185 89.48144 10168 ft 0 kts 122°
2026-04-29 11:58 27.31836 89.48783 10971 ft 237 kts 121°
2026-04-29 11:58 27.31016 89.50362 11894 ft 237 kts 123°
2026-04-29 11:58 27.30051 89.51952 12345 ft 255 kts 128°
2026-04-29 11:59 27.28985 89.53578 13063 ft 260 kts 128°
2026-04-29 11:59 27.27912 89.55234 13837 ft 265 kts 128°
2026-04-29 11:59 27.26820 89.56920 14506 ft 268 kts 128°
2026-04-29 11:59 27.25718 89.58628 15207 ft 272 kts 128°
2026-04-29 12:00 27.24602 89.60363 15885 ft 276 kts 128°
2026-04-29 12:00 27.23473 89.62120 16564 ft 280 kts 128°
2026-04-29 12:00 27.22326 89.63864 17174 ft 282 kts 135°
2026-04-29 12:00 27.20757 89.65144 17782 ft 279 kts 162°
2026-04-29 12:01 27.18879 89.65518 18310 ft 275 kts 189°
2026-04-29 12:01 27.17084 89.64911 18807 ft 270 kts 214°
2026-04-29 12:01 27.15716 89.63481 19278 ft 271 kts 235°
2026-04-29 12:01 27.14733 89.61669 19863 ft 272 kts 243°
2026-04-29 12:02 27.13890 89.59758 20440 ft 275 kts 245°
2026-04-29 12:02 27.13066 89.57814 21029 ft 277 kts 244°
2026-04-29 12:02 27.12219 89.55859 21591 ft 280 kts 244°
2026-04-29 12:02 27.11350 89.53907 21876 ft 285 kts 243°
2026-04-29 12:03 27.10451 89.51928 21960 ft 283 kts 243°
2026-04-29 12:03 27.09551 89.49971 21980 ft 281 kts 243°
2026-04-29 12:03 27.08649 89.48016 21984 ft 284 kts 243°
2026-04-29 12:03 27.07738 89.46041 21967 ft 285 kts 243°
2026-04-29 12:04 27.06831 89.44076 21965 ft 283 kts 243°
2026-04-29 12:04 27.05928 89.42119 21950 ft 282 kts 243°
2026-04-29 12:04 27.05022 89.40157 21944 ft 284 kts 243°
2026-04-29 12:04 27.04109 89.38180 21943 ft 286 kts 243°
2026-04-29 12:05 27.03200 89.36213 21944 ft 282 kts 243°
2026-04-29 12:05 27.02309 89.34284 21933 ft 284 kts 243°
2026-04-29 12:05 27.01399 89.32314 21937 ft 284 kts 243°
2026-04-29 12:05 27.00489 89.30346 21935 ft 284 kts 243°
2026-04-29 12:06 26.99578 89.28379 21931 ft 284 kts 244°
2026-04-29 12:06 26.98665 89.26409 21925 ft 285 kts 243°
2026-04-29 12:06 26.97758 89.24450 21918 ft 283 kts 243°
2026-04-29 12:06 26.96852 89.22494 21915 ft 284 kts 244°
2026-04-29 12:07 26.95934 89.20513 21708 ft 286 kts 243°
2026-04-29 12:07 26.95019 89.18538 21166 ft 285 kts 243°
2026-04-29 12:07 26.94106 89.16571 20617 ft 284 kts 244°
2026-04-29 12:07 26.93210 89.14638 20080 ft 282 kts 244°
2026-04-29 12:08 26.92304 89.12688 19549 ft 282 kts 244°
2026-04-29 12:08 26.91398 89.10738 19035 ft 282 kts 244°
2026-04-29 12:08 26.90493 89.08793 18525 ft 280 kts 244°
2026-04-29 12:08 26.89596 89.06863 18001 ft 279 kts 244°
2026-04-29 12:09 26.88705 89.04949 17446 ft 276 kts 244°
2026-04-29 12:09 26.87828 89.03065 17006 ft 270 kts 245°
2026-04-29 12:09 26.86971 89.01224 16578 ft 263 kts 245°
2026-04-29 12:09 26.86143 88.99448 16166 ft 257 kts 245°
2026-04-29 12:10 26.85326 88.97694 15763 ft 251 kts 245°
2026-04-29 12:10 26.84528 88.95983 15375 ft 245 kts 245°
2026-04-29 12:10 26.83742 88.94294 15011 ft 245 kts 245°
2026-04-29 12:10 26.82955 88.92603 14639 ft 244 kts 245°
2026-04-29 12:11 26.82175 88.90931 14280 ft 241 kts 245°
2026-04-29 12:11 26.81400 88.89269 13936 ft 240 kts 245°
2026-04-29 12:11 26.80631 88.87621 13560 ft 238 kts 245°
2026-04-29 12:11 26.79865 88.85980 13169 ft 238 kts 245°
2026-04-29 12:12 26.79109 88.84359 12793 ft 239 kts 245°
2026-04-29 12:12 26.78342 88.82713 12403 ft 238 kts 245°
2026-04-29 12:12 26.77575 88.81073 12029 ft 238 kts 245°
2026-04-29 12:12 26.76808 88.79433 11646 ft 238 kts 244°
2026-04-29 12:13 26.76039 88.77791 11287 ft 238 kts 244°
2026-04-29 12:13 26.75261 88.76155 10935 ft 240 kts 244°
2026-04-29 12:13 26.74472 88.74496 10570 ft 242 kts 243°
2026-04-29 12:13 26.73680 88.72833 10206 ft 243 kts 243°
2026-04-29 12:14 26.72894 88.71180 9847 ft 244 kts 243°
2026-04-29 12:14 26.72095 88.69500 9463 ft 246 kts 243°
2026-04-29 12:14 26.71292 88.67811 9066 ft 247 kts 243°
2026-04-29 12:14 26.70483 88.66108 8666 ft 249 kts 242°
2026-04-29 12:15 26.69669 88.64394 8267 ft 251 kts 242°
2026-04-29 12:15 26.68847 88.62662 7873 ft 253 kts 241°
2026-04-29 12:15 26.68019 88.60920 7482 ft 255 kts 241°
2026-04-29 12:15 26.67184 88.59159 7092 ft 258 kts 240°
2026-04-29 12:16 26.66343 88.57391 6693 ft 255 kts 240°
2026-04-29 12:16 26.65533 88.55686 6308 ft 249 kts 240°
2026-04-29 12:16 26.64731 88.53994 5929 ft 244 kts 240°
2026-04-29 12:16 26.63940 88.52329 5543 ft 241 kts 240°
2026-04-29 12:17 26.63153 88.50673 5168 ft 242 kts 240°
2026-04-29 12:17 26.62363 88.49013 4797 ft 241 kts 240°
2026-04-29 12:17 26.61581 88.47366 4433 ft 241 kts 240°
2026-04-29 12:17 26.60796 88.45716 4045 ft 239 kts 240°
2026-04-29 12:18 26.60022 88.44092 3672 ft 234 kts 240°
2026-04-29 12:18 26.59265 88.42500 3311 ft 230 kts 240°
2026-04-29 12:18 26.58527 88.40950 2956 ft 227 kts 240°
2026-04-29 12:18 26.57793 88.39407 2604 ft 223 kts 240°
2026-04-29 12:19 26.57069 88.37888 2260 ft 220 kts 240°
2026-04-29 12:19 26.56365 88.36407 2048 ft 210 kts 240°
2026-04-29 12:19 26.55699 88.35006 2011 ft 205 kts 239°
2026-04-29 12:19 26.55025 88.33593 2004 ft 206 kts 239°
2026-04-29 12:20 26.54351 88.32179 2015 ft 203 kts 240°
2026-04-29 12:20 26.53699 88.30885 1989 ft 179 kts 227°
2026-04-29 12:20 26.52767 88.30239 1999 ft 145 kts 185°
2026-04-29 12:20 26.51835 88.30168 2005 ft 136 kts 176°
2026-04-29 12:21 26.50885 88.30135 2002 ft 135 kts 177°
2026-04-29 12:21 26.49948 88.30100 2002 ft 135 kts 178°
2026-04-29 12:21 26.49013 88.30065 1999 ft 134 kts 178°
2026-04-29 12:21 26.48088 88.29958 1990 ft 137 kts 198°
2026-04-29 12:22 26.47259 88.29401 2001 ft 141 kts 207°
2026-04-29 12:22 26.46424 88.28819 2001 ft 143 kts 207°
2026-04-29 12:22 26.45580 88.28230 2003 ft 143 kts 207°
2026-04-29 12:22 26.44674 88.27982 1999 ft 132 kts 162°
2026-04-29 12:23 26.43962 88.28552 2009 ft 130 kts 113°
2026-04-29 12:23 26.43989 88.29497 2000 ft 129 kts 61°
2026-04-29 12:23 26.44763 88.30012 2002 ft 140 kts
2026-04-29 12:23 26.45744 88.30068 1991 ft 140 kts 13°
2026-04-29 12:24 26.46651 88.30414 2000 ft 137 kts 26°
2026-04-29 12:24 26.47537 88.30811 2004 ft 138 kts 26°
2026-04-29 12:24 26.47832 88.30943 2003 ft 138 kts 26°
2026-04-29 12:24 26.48354 88.31136 1997 ft 138 kts 12°
2026-04-29 12:25 26.49316 88.31230 1996 ft 139 kts 12°
2026-04-29 12:25 26.50263 88.31404 2006 ft 138 kts 15°
2026-04-29 12:25 26.52140 88.31798 2002 ft 138 kts 15°
2026-04-29 12:26 26.53082 88.32021 2001 ft 139 kts 16°
2026-04-29 12:26 26.54042 88.32191 2000 ft 139 kts 10°
2026-04-29 12:26 26.55004 88.32273 2003 ft 140 kts
2026-04-29 12:26 26.55975 88.32320 1999 ft 138 kts
2026-04-29 12:27 26.56934 88.32360 2003 ft 138 kts
2026-04-29 12:27 26.57902 88.32398 2001 ft 140 kts
2026-04-29 12:27 26.58884 88.32437 1903 ft 142 kts
2026-04-29 12:27 26.59856 88.32473 1722 ft 140 kts
2026-04-29 12:28 26.60823 88.32512 1551 ft 140 kts
2026-04-29 12:28 26.61784 88.32550 1376 ft 138 kts
2026-04-29 12:28 26.62736 88.32588 1216 ft 135 kts
2026-04-29 12:28 26.63669 88.32623 1042 ft 134 kts
2026-04-29 12:29 26.64591 88.32661 867 ft 131 kts
2026-04-29 12:29 26.65512 88.32696 690 ft 133 kts
2026-04-29 12:29 26.66439 88.32729 516 ft 133 kts
2026-04-29 12:29 26.67345 88.32773 407 ft 129 kts
2026-04-29 12:30 26.68073 88.32807 413 ft 76 kts
2026-04-29 12:30 26.68336 88.32806 408 ft 8 kts 357°
2026-04-29 12:30 26.68351 88.32759 417 ft 8 kts 271°
2026-04-29 12:30 26.68352 88.32714 413 ft 10 kts 271°
2026-04-29 12:31 26.68357 88.32685 417 ft 7 kts 301°
2026-04-29 12:31 26.68408 88.32673 414 ft 8 kts 346°
2026-04-29 12:31 26.68425 88.32636 414 ft 0 kts 291°